EW8088 Weather Reports


time (UTC)temp
C
wind
direction
speed
KPH
gust
KPH
rain 1hr
cm
rain 24hr
cm
rain mn
cm
humidity
%
barometer
mb
20260508005017 7 0.0 0.0 0.00 0.00 0.00 90 1016.5
20260508004017 7 0.0 0.0 0.00 0.00 0.00 90 1016.6
20260508003017 8 0.0 0.0 0.00 0.00 0.00 90 1016.6
20260508002017 8 0.0 0.0 0.00 0.00 0.00 90 1016.6
20260508001037 9 0.0 0.0 0.00 0.00 0.00 90 1016.7
20260508000017 9 0.0 0.0 0.00 0.00 0.00 90 1016.8
20260507235017 10 0.0 0.0 0.00 0.00 0.00 90 1016.8
20260507234017 10 0.0 0.0 0.00 0.00 0.00 90 1016.6
20260507233017 10 0.0 0.0 0.00 0.00 0.00 90 1016.6
20260507232017 10 0.0 0.0 0.00 0.00 0.00 90 1016.5
20260507231037 10 0.0 1.6 0.00 0.00 0.00 90 1016.6
20260507230037 10 0.0 0.0 0.00 0.00 0.00 90 1016.5
20260507225016 10 0.0 0.0 0.00 0.00 0.00 90 1016.8
20260507224015 10 0.0 0.0 0.00 0.00 0.00 90 1016.9
20260507223035 10 0.0 0.0 0.00 0.00 0.00 90 1017.0
20260507222015 11 0.0 0.0 0.00 0.00 0.00 90 1016.9
20260507221015 11 0.0 0.0 0.00 0.00 0.00 90 1016.9
20260507220015 11 0.0 0.0 0.00 0.00 0.00 90 1016.9
20260507215015 11 0.0 0.0 0.00 0.00 0.00 89 1016.9
20260507214015 11 0.0 0.0 0.00 0.00 0.00 89 1016.9
20260507213015 11 0.0 0.0 0.00 0.00 0.00 89 1016.9
20260507212016 11 0.0 0.0 0.00 0.00 0.00 89 1016.8
20260507211015 11 0.0 0.0 0.00 0.00 0.00 89 1016.7
20260507210035 11 0.0 1.6 0.00 0.00 0.00 89 1016.7
20260507205017 11 0.0 1.6 0.00 0.00 0.00 89 1016.7
20260507204017 11 0.0 1.6 0.00 0.00 0.00 88 1016.6
20260507203017 11 0.0 0.0 0.00 0.00 0.00 88 1016.5
20260507202017 12 0.0 0.0 0.00 0.00 0.00 88 1016.4
20260507201017 12 0.0 1.6 0.00 0.00 0.00 88 1016.2
20260507200017 12 0.0 3.2 0.00 0.00 0.00 88 1016.0
20260507195037 12 0.0 3.2 0.00 0.00 0.00 88 1015.9
20260507194017 12 0.0 3.2 0.00 0.00 0.00 88 1015.7
20260507193017 12 0.0 4.8 0.00 0.00 0.00 88 1015.6
20260507192017 13 0.0 1.6 0.00 0.00 0.00 88 1015.6
20260507191037 13 0.0 3.2 0.00 0.00 0.00 88 1015.5
20260507190017 13 0.0 1.6 0.00 0.00 0.00 88 1015.5
20260507185017 13 0.0 1.6 0.00 0.00 0.00 88 1015.6
20260507184017 13 0.0 4.8 0.00 0.00 0.00 88 1015.4
20260507183017 13 0.0 3.2 0.00 0.00 0.00 87 1015.4
20260507182017 14 0.0 1.6 0.00 0.00 0.00 89 1015.3
20260507181037 14 0.0 1.6 0.00 0.00 0.00 89 1015.2
20260507180037 15 0.0 1.6 0.00 0.00 0.00 89 1015.2
20260507175017 15 0.0 1.6 0.00 0.00 0.00 89 1015.2
20260507174037 15 0.0 0.0 0.00 0.00 0.00 89 1015.1
20260507173017 15 0.0 1.6 0.00 0.00 0.00 89 1015.0
20260507172017 16 0.0 0.0 0.00 0.00 0.00 89 1015.0
20260507171037 16 0.0 1.6 0.00 0.00 0.00 87 1015.1
20260507170017 16 0.0 1.6 0.00 0.00 0.00 88 1015.1
20260507165037 17 0.0 1.6 0.00 0.00 0.00 87 1015.1
20260507164017 17 0.0 3.2 0.00 0.00 0.00 87 1015.2
20260507163037 17 0.0 0.0 0.00 0.00 0.00 87 1015.1
20260507162017 17 0.0 1.6 0.00 0.00 0.00 87 1015.2
20260507161122 18 0.0 1.6 0.00 0.00 0.00 87 1015.2
20260507160017 17 0.0 0.0 0.00 0.00 0.00 87 1015.2
20260507155017 17 0.0 0.0 0.00 0.00 0.00 87 1015.2
20260507154017 17 0.0 0.0 0.00 0.00 0.00 87 1015.2
20260507153017 17 0.0 0.0 0.00 0.00 0.00 86 1015.3
20260507152016 17 0.0 4.8 0.00 0.00 0.00 86 1015.4
20260507151017 18 0.0 0.0 0.00 0.00 0.00 86 1015.4
20260507150057 18 0.0 1.6 0.00 0.00 0.00 86 1015.4
20260507145016 18 0.0 3.2 0.00 0.00 0.00 86 1015.4
20260507144016 18 0.0 4.8 0.00 0.00 0.00 85 1015.4
20260507143016 18 0.0 6.4 0.00 0.00 0.00 85 1015.4
20260507142036 18 0.0 4.8 0.00 0.00 0.00 85 1015.5
20260507141016 18 0.0 0.0 0.00 0.00 0.00 84 1015.6
20260507140017 18 0.0 6.4 0.00 0.00 0.00 84 1015.7
20260507135016 18 0.0 4.8 0.00 0.00 0.00 83 1015.7
20260507134017 17 0.0 6.4 0.00 0.00 0.00 81 1015.7
20260507133017 17 0.0 4.8 0.00 0.00 0.00 80 1015.8
20260507132016 17 0.0 3.2 0.00 0.00 0.00 82 1015.8
20260507131016 17 0.0 1.6 0.00 0.00 0.00 81 1015.8
20260507130016 17 0.0 4.8 0.00 0.00 0.00 84 1015.9
20260507125016 18 0.0 4.8 0.00 0.00 0.00 88 1016.1
20260507124016 18 0.0 8.0 0.00 0.00 0.00 90 1016.0
20260507123016 18 0.0 3.2 0.00 0.00 0.00 91 1016.1
20260507122016 19 0.0 4.8 0.00 0.00 0.00 91 1016.1
20260507121056 18 0.0 3.2 0.00 0.00 0.00 91 1016.1
20260507120016 18 0.0 6.4 0.00 0.00 0.00 91 1016.2
20260507115016 17 0.0 1.6 0.00 0.00 0.00 91 1016.2
20260507114016 17 0.0 4.8 0.00 0.00 0.00 91 1016.2
20260507113016 16 0.0 3.2 0.00 0.00 0.00 91 1016.4
20260507112016 16 0.0 1.6 0.00 0.00 0.00 90 1016.4
20260507111036 14 0.0 4.8 0.00 0.00 0.00 90 1016.4
20260507110016 14 0.0 1.6 0.00 0.00 0.00 90 1016.5
20260507105036 14 0.0 1.6 0.00 0.00 0.00 90 1016.6
20260507104016 13 0.0 1.6 0.00 0.00 0.00 91 1016.6
20260507103016 13 0.0 0.0 0.00 0.00 0.00 91 1016.6
20260507102016 12 0.0 0.0 0.00 0.00 0.00 91 1016.7
20260507101016 12 0.0 1.6 0.00 0.00 0.00 91 1016.7
20260507100016 12 0.0 0.0 0.00 0.00 0.00 91 1016.7
20260507095016 11 0.0 0.0 0.00 0.00 0.00 91 1016.7
20260507094016 11 0.0 1.6 0.00 0.00 0.00 91 1016.8
20260507092036 11 0.0 1.6 0.00 0.00 0.00 91 1016.8
20260507091016 11 0.0 1.6 0.00 0.00 0.00 91 1016.7
20260507090016 11 0.0 0.0 0.00 0.00 0.00 91 1016.7
20260507085016 10 0.0 0.0 0.00 0.00 0.00 91 1016.7
20260507084036 9 0.0 0.0 0.00 0.00 0.00 91 1016.8
20260507083036 8 0.0 1.6 0.00 0.00 0.00 91 1016.8
20260507082056 8 0.0 0.0 0.00 0.00 0.00 91 1016.7
20260507081016 8 0.0 0.0 0.00 0.00 0.00 91 1016.7
20260507080016 8 0.0 0.0 0.00 0.00 0.00 91 1016.7
20260507075016 8 0.0 1.6 0.00 0.00 0.00 91 1016.7
20260507074016 8 0.0 1.6 0.00 0.00 0.00 91 1016.6
20260507073036 8 0.0 0.0 0.00 0.00 0.00 91 1016.7
20260507072016 8 0.0 0.0 0.00 0.00 0.00 92 1016.6
20260507071015 7 0.0 0.0 0.00 0.00 0.00 92 1016.6
20260507070016 7 0.0 0.0 0.00 0.00 0.00 92 1016.6
20260507065016 7 0.0 0.0 0.00 0.00 0.00 92 1016.6
20260507064016 7 0.0 1.6 0.00 0.00 0.00 91 1016.6
20260507063015 7 0.0 1.6 0.00 0.00 0.00 91 1016.5
20260507062015 7 0.0 0.0 0.00 0.00 0.00 91 1016.5
20260507061035 7 0.0 0.0 0.00 0.00 0.00 91 1016.5
20260507060035 7 0.0 0.0 0.00 0.00 0.00 91 1016.4
20260507055056 7 0.0 0.0 0.00 0.00 0.00 91 1016.3
20260507054015 7 0.0 0.0 0.00 0.00 0.00 91 1016.4
20260507053016 7 0.0 0.0 0.00 0.00 0.00 91 1016.3
20260507052035 7 0.0 0.0 0.00 0.00 0.00 91 1016.3
20260507051016 6 0.0 0.0 0.00 0.00 0.00 91 1016.3
20260507050035 6 0.0 0.0 0.00 0.00 0.00 91 1016.2
20260507045015 6 0.0 0.0 0.00 0.00 0.00 91 1016.1
20260507044055 6 0.0 0.0 0.00 0.00 0.00 91 1016.1
20260507043015 6 0.0 0.0 0.00 0.00 0.00 91 1016.1
20260507042015 6 0.0 0.0 0.00 0.00 0.00 91 1016.1
20260507041015 6 0.0 0.0 0.00 0.00 0.00 91 1016.0
20260507040016 6 0.0 0.0 0.00 0.00 0.00 91 1016.0
20260507035015 6 0.0 0.0 0.00 0.00 0.00 91 1016.0
20260507034015 6 0.0 0.0 0.00 0.00 0.00 91 1016.1
20260507033015 6 0.0 0.0 0.00 0.00 0.00 91 1015.9
20260507032015 5 0.0 0.0 0.00 0.00 0.00 90 1015.9
20260507031015 5 0.0 0.0 0.00 0.00 0.00 90 1016.0
20260507030037 5 0.0 0.0 0.00 0.00 0.00 90 1016.0
20260507025017 5 0.0 0.0 0.00 0.00 0.00 90 1015.9
20260507024017 4 0.0 0.0 0.00 0.00 0.00 90 1015.9
20260507023017 4 0.0 0.0 0.00 0.00 0.00 90 1016.0
20260507022018 3 0.0 0.0 0.00 0.00 0.00 90 1016.0
20260507021017 3 0.0 0.0 0.00 0.00 0.00 90 1015.9
20260507020017 2 0.0 0.0 0.00 0.00 0.00 90 1015.9
20260507015017 2 0.0 0.0 0.00 0.00 0.00 90 1015.8
20260507014017 2 0.0 0.0 0.00 0.00 0.00 90 1015.7
20260507013017 2 0.0 0.0 0.00 0.00 0.00 90 1015.8
20260507012017 2 0.0 0.0 0.00 0.00 0.00 90 1015.8
20260507011017 2 0.0 0.0 0.00 0.00 0.00 90 1015.7
20260507010017 2 0.0 0.0 0.00 0.00 0.00 90 1015.7